CW9927 Weather Reports


time (UTC)temp
F
wind
direction
speed
knots
gust
knots
rain 1hr
in
rain 24hr
in
rain mn
in
humidity
%
barometer
mb
20260903092116 52 0.0 0.0 0.00 0.00 0.00 88 1017.3
20260903091136 52 0.0 0.0 0.00 0.00 0.00 87 1017.3
20260903090116 53 0.0 0.0 0.00 0.00 0.00 87 1017.3
20260903085116 53 0.0 0.0 0.00 0.00 0.00 87 1017.3
20260903084117 54 0.0 0.0 0.00 0.00 0.00 88 1017.3
20260903083137 54 0.0 0.0 0.00 0.00 0.00 88 1017.3
20260903082119 54 0.0 0.0 0.00 0.00 0.00 88 1017.3
20260903081116 55 0.0 0.0 0.00 0.00 0.00 88 1017.4
20260903080116 55 0.0 0.0 0.00 0.00 0.00 87 1017.4
20260903075116 55 0.0 0.0 0.00 0.00 0.00 86 1017.4
20260903074116 55 0.0 0.0 0.00 0.00 0.00 86 1017.4
20260903073117 56 0.0 0.0 0.00 0.00 0.00 87 1017.3
20260903072116 56 0.0 0.0 0.00 0.00 0.00 86 1017.4
20260903071116 56 0.0 0.0 0.00 0.00 0.00 86 1017.3
20260903065137 57 0.0 0.0 0.00 0.00 0.00 86 1017.3
20260903064137 57 0.0 0.0 0.00 0.00 0.00 86 1017.3
20260903063117 57 0.0 0.0 0.00 0.00 0.00 86 1017.4
20260903062117 58 0.0 0.0 0.00 0.00 0.00 85 1017.4
20260903061117 58 0.0 0.0 0.00 0.00 0.00 85 1017.4
20260903060117 58 0.0 0.0 0.00 0.00 0.00 85 1017.5
20260903055118 58 0.0 0.0 0.00 0.00 0.00 84 1017.5
20260903054117 59 0.0 0.0 0.00 0.00 0.00 84 1017.6
20260903053117 59 0.0 0.0 0.00 0.00 0.00 83 1017.6
20260903052119 59 0.0 0.0 0.00 0.00 0.00 83 1017.6
20260903051139 59 0.0 0.0 0.00 0.00 0.00 82 1017.6
20260903050138 59 0.0 0.0 0.00 0.00 0.00 82 1017.7
20260903045117 60 0.0 0.0 0.00 0.00 0.00 81 1017.6
20260903044117 60 0.0 0.0 0.00 0.00 0.00 80 1017.4
20260903043118 60 0.0 0.0 0.00 0.00 0.00 79 1017.4
20260903042117 60 0.0 0.0 0.00 0.00 0.00 77 1017.3
20260903041138 61 0.0 0.0 0.00 0.00 0.00 77 1017.2
20260903040117 61 0.0 0.0 0.00 0.00 0.00 77 1017.2
20260903035118 62 0.0 0.0 0.00 0.00 0.00 77 1016.9
20260903034118 62 0.0 0.0 0.00 0.00 0.00 76 1016.8
20260903033117 62 0.0 0.0 0.00 0.00 0.00 76 1016.9
20260903032117 63 0.0 0.0 0.00 0.00 0.00 76 1016.7
20260903031118 63 0.0 0.0 0.00 0.00 0.00 75 1016.6
20260903030118 63 0.0 0.0 0.00 0.00 0.00 75 1016.5
20260903025119 64 0.0 0.0 0.00 0.00 0.00 74 1016.3
20260903024117 65 0.0 0.0 0.00 0.00 0.00 73 1016.4
20260903023117 66 0.0 0.0 0.00 0.00 0.00 72 1016.4
20260903022117 67 0.0 0.0 0.00 0.00 0.00 71 1016.4
20260903021117 68 0.0 0.0 0.00 0.00 0.00 70 1016.4
20260903020117 69 0.0 0.0 0.00 0.00 0.00 69 1016.3
20260903015115 69 0.0 0.0 0.00 0.00 0.00 69 1016.5
20260903014117 70 0.0 0.0 0.00 0.00 0.00 68 1016.6
20260903013117 70 0.0 0.0 0.00 0.00 0.00 67 1016.6
20260903012117 71 0.0 0.0 0.00 0.00 0.00 67 1016.5
20260903011117 71 0.0 0.0 0.00 0.00 0.00 66 1016.6
20260903010240 72 0.0 0.0 0.00 0.00 0.00 66 1016.7
20260903005117 72 0.0 0.0 0.00 0.00 0.00 65 1016.7
20260903004117 72 0.0 0.0 0.00 0.00 0.00 63 1016.6
20260903003117 73 0.0 1.7 0.00 0.00 0.00 62 1016.6
20260903002117 74 270 5.2 10.4 0.00 0.00 0.00 61 1016.4
20260903001117 74 248 2.6 7.0 0.00 0.00 0.00 60 1016.4
20260903000117 75 0.0 0.0 0.00 0.00 0.00 60 1016.4
20260902235117 75 248 6.1 10.4 0.00 0.00 0.00 57 1016.4
20260902234117 75 0.0 0.0 0.00 0.00 0.00 58 1016.4
20260902233117 76 0.0 0.0 0.00 0.00 0.00 57 1016.5
20260902232137 77 248 1.7 4.3 0.00 0.00 0.00 54 1016.5
20260902231117 77 0.0 0.0 0.00 0.00 0.00 52 1016.6
20260902230117 78 0.0 0.0 0.00 0.00 0.00 53 1016.7
20260902225137 77 0.0 0.0 0.00 0.00 0.00 53 1016.8
20260902224158 77 0.0 0.0 0.00 0.00 0.00 52 1016.9
20260902223137 78 0.0 0.0 0.00 0.00 0.00 51 1017.0
20260902222116 78 0.0 0.0 0.00 0.00 0.00 52 1017.0
20260902221138 78 0.0 0.0 0.00 0.00 0.00 53 1017.1
20260902220118 77 0.0 0.0 0.00 0.00 0.00 54 1017.1
20260902215116 78 0.0 0.0 0.00 0.00 0.00 55 1017.2
20260902214116 77 0.0 0.0 0.00 0.00 0.00 54 1017.3
20260902213116 77 0.0 0.9 0.00 0.00 0.00 54 1017.5
20260902212117 77 0.0 0.0 0.00 0.00 0.00 55 1017.5
20260902211136 77 0.0 0.0 0.00 0.00 0.00 54 1017.7
20260902210116 76 0.0 0.9 0.00 0.00 0.00 57 1017.6
20260902205157 76 0.0 0.0 0.00 0.00 0.00 55 1017.8
20260902204116 77 0.0 0.0 0.00 0.00 0.00 54 1017.8
20260902203157 76 0.0 0.0 0.00 0.00 0.00 57 1017.9
20260902202116 76 0.0 0.0 0.00 0.00 0.00 56 1017.9
20260902201137 76 0.0 0.0 0.00 0.00 0.00 57 1017.9
20260902200116 75 0.0 0.0 0.00 0.00 0.00 57 1018.1
20260902195116 75 0.0 0.0 0.00 0.00 0.00 58 1018.2
20260902194117 76 0.0 0.0 0.00 0.00 0.00 58 1018.1
20260902193116 75 0.0 0.0 0.00 0.00 0.00 58 1018.3
20260902192136 75 0.0 0.0 0.00 0.00 0.00 60 1018.2
20260902191136 74 0.0 0.0 0.00 0.00 0.00 59 1018.3
20260902185116 73 0.0 0.0 0.00 0.00 0.00 61 1018.4
20260902184116 72 0.0 0.0 0.00 0.00 0.00 62 1018.5
20260902183116 71 0.0 0.0 0.00 0.00 0.00 62 1018.5
20260902182116 71 0.0 0.0 0.00 0.00 0.00 63 1018.7
20260902181117 71 0.0 0.0 0.00 0.00 0.00 62 1018.8
20260902180157 70 0.0 0.0 0.00 0.00 0.00 64 1018.8
20260902175116 70 0.0 0.0 0.00 0.00 0.00 64 1018.9
20260902174116 69 0.0 0.0 0.00 0.00 0.00 65 1018.9
20260902173116 68 0.0 0.0 0.00 0.00 0.00 66 1018.8
20260902172116 68 0.0 0.0 0.00 0.00 0.00 67 1018.8
20260902171136 67 0.0 0.0 0.00 0.00 0.00 67 1018.8
20260902170116 67 0.0 0.0 0.00 0.00 0.00 67 1018.9
20260902165116 67 0.0 0.0 0.00 0.00 0.00 68 1018.9
20260902164116 65 0.0 0.0 0.00 0.00 0.00 71 1019.0
20260902163116 65 0.0 0.0 0.00 0.00 0.00 71 1019.0
20260902162138 64 0.0 0.0 0.00 0.00 0.00 77 1018.8
20260902161116 61 0.0 0.0 0.00 0.00 0.00 81 1018.8
20260902160116 60 0.0 0.0 0.00 0.00 0.00 85 1018.8
20260902155116 58 0.0 0.0 0.00 0.00 0.00 85 1018.7
20260902154116 58 0.0 0.0 0.00 0.00 0.00 89 1018.7
20260902153139 56 0.0 0.0 0.00 0.00 0.00 91 1018.7
20260902152118 55 0.0 0.0 0.00 0.00 0.00 91 1018.7
20260902151118 55 0.0 0.0 0.00 0.00 0.00 91 1018.8
20260902150116 56 0.0 0.0 0.00 0.00 0.00 92 1018.7
20260902145116 54 0.0 0.0 0.00 0.00 0.00 93 1018.6
20260902144136 53 0.0 0.0 0.00 0.00 0.00 93 1018.6
20260902143116 51 0.0 0.0 0.00 0.00 0.00 93 1018.3
20260902142120 49 0.0 0.0 0.00 0.00 0.00 91 1018.2
20260902141119 49 0.0 0.0 0.00 0.00 0.00 91 1018.1
20260902140116 49 0.0 0.0 0.00 0.00 0.00 91 1018.1
20260902135116 49 0.0 0.0 0.00 0.00 0.00 91 1018.1
20260902134116 49 0.0 0.0 0.00 0.00 0.00 91 1018.1
20260902133116 49 0.0 0.0 0.00 0.00 0.00 91 1018.1
20260902132137 49 0.0 0.0 0.00 0.00 0.00 91 1017.9
20260902131116 49 0.0 0.0 0.00 0.00 0.00 90 1017.8
20260902125316 49 0.0 0.0 0.00 0.00 0.00 90 1017.8
20260902124318 50 0.0 0.0 0.00 0.00 0.00 90 1017.8
20260902123318 50 0.0 0.0 0.00 0.00 0.00 90 1017.7
20260902122316 50 0.0 0.0 0.00 0.00 0.00 91 1017.7
20260902121316 49 0.0 0.0 0.00 0.00 0.00 90 1017.6
20260902120316 49 0.0 0.0 0.00 0.00 0.00 90 1017.8
20260902115316 49 0.0 0.0 0.00 0.00 0.00 89 1017.8
20260902114316 49 0.0 0.0 0.00 0.00 0.00 89 1017.9
20260902113336 49 0.0 0.0 0.00 0.00 0.00 89 1017.8
20260902112316 49 0.0 0.0 0.00 0.00 0.00 89 1017.9
20260902111316 49 0.0 0.0 0.00 0.00 0.00 89 1017.9
20260902110316 50 0.0 0.0 0.00 0.00 0.00 89 1017.9
20260902105316 50 0.0 0.0 0.00 0.00 0.00 89 1017.9
20260902104316 50 0.0 0.0 0.00 0.00 0.00 89 1017.9
20260902103336 50 0.0 0.0 0.00 0.00 0.00 89 1017.9
20260902102316 51 0.0 0.0 0.00 0.00 0.00 89 1017.9
20260902101316 51 0.0 0.0 0.00 0.00 0.00 89 1018.0
20260902100316 51 0.0 0.0 0.00 0.00 0.00 89 1018.0
20260902095316 52 0.0 0.0 0.00 0.00 0.00 89 1017.8
20260902094316 52 0.0 0.0 0.00 0.00 0.00 89 1017.8
20260902093336 52 0.0 0.0 0.00 0.00 0.00 89 1017.8